AirNav   Air Wisconsin Up To $57,000 Bonus
 
 911 users online  

8GA8 Falcons Aerie Airport
Carrollton, Georgia, USA

GOING TO CARROLLTON?


FAA INFORMATION EFFECTIVE 31 DECEMBER 2020

Location

FAA Identifier: 8GA8
Lat/Long: 33-34-38.3980N 085-00-10.7930W
33-34.639967N 085-00.179883W
33.5773328,-85.0029981
(estimated)
Elevation: 1180 ft. / 360 m (estimated)
Variation: 02W (1990)
From city: 5 miles E of CARROLLTON, GA
Time zone: UTC -5 (UTC -4 during Daylight Saving Time)
Zip code: 30116

Airport Operations

Airport use: Private use. Permission required prior to landing
Activation date: 03/1992
Control tower: no
ARTCC: ATLANTA CENTER
FSS: MACON FLIGHT SERVICE STATION
Attendance: IREG
Wind indicator: yes
Segmented circle: no

Airport Communications

WX AWOS-3 at CTJ (8 nm NW): 118.175 (770-214-9667)
WX AWOS-3PT at CCO (20 nm SE): 118.975 (770-254-1617)

Nearby radio navigation aids

VOR radial/distance  VOR name  Freq  Var
ATLr269/28.6ATLANTA VORTAC116.9005W
LGCr017/33.3LAGRANGE VORTAC115.6001E
RMGr170/35.6ROME VORTAC115.4001E
PDKr248/39.4PEACHTREE VOR/DME116.6005W

 
NDB name  Hdg/Dist  Freq  Var  ID
CARROLLTON088/6.427804WGPQ --. .--. --.-
COWETA COUNTY326/24.123403WEQQ . --.- --.-
PECAT308/30.731605WFFC ..-. ..-. -.-.

Airport Services

Runway Information

Runway 17/35

Dimensions: 2000 x 60 ft. / 610 x 18 m
Surface: turf
RUNWAY 17  RUNWAY 35
Traffic pattern: leftleft

Airport Ownership and Management from official FAA records

Ownership: Privately-owned
Owner: BART STONE
1451 HORSLEY MILL RD
CARROLLTON, GA 30117
Phone (770) 617-4566

Airport Operational Statistics

Aircraft based on the field: 1
Single engine airplanes: 1
    

Additional Remarks

FOR CD CTC ATLANTA APCH AT 678-364-6131.

Instrument Procedures

There are no published instrument procedures at 8GA8.

Some nearby airports with instrument procedures:

KCTJ - West Georgia Regional Airport-O V Gray Field (8 nm NW)
KCCO - Newnan Coweta County Airport (20 nm SE)
KPUJ - Paulding Northwest Atlanta Airport (20 nm N)
KFFC - Atlanta Regional Airport-Falcon Field (25 nm SE)
KFTY - Fulton County Exec/Charlie Brown Field Airport (27 nm NE)
 
Loc | Ops | Rwys | IFR | FBO | Links
Com | Nav | Svcs | Stats | Notes
Area around 8GA8 (Falcons Aerie Airport)
 
Road maps at: MapQuest Bing Google
 
Aerial photo
No photo
 
Sectional chart

 
Airport distance calculator
Flying to Falcons Aerie Airport? Find the distance to fly.

From to 8GA8

Sunrise and sunset
Times for 22-Jan-2021
 Local
(UTC-5)
 Zulu
(UTC)
Morning civil twilight07:1612:16
Sunrise07:4312:43
Sunset18:0023:00
Evening civil twilight18:2723:27

Current date and time
Zulu (UTC)  23-Jan-2021 02:28:18
Local (UTC-5)  22-Jan-2021 21:28:18
 
METAR
KCTJ 
8nm NW 
230155Z AUTO 00000KT 10SM CLR 03/02 A3010 RMK AO2 T00300021
KCCO 
20nm SE 
230155Z AUTO 34004KT 10SM CLR 10/02 A3006 RMK AO2 T01040016
TAF
KFTY 
27nm NE 
221742Z 2218/2318 30005KT P6SM BKN060 BKN100 FM222200 32007KT P6SM SCT150 FM230300 33006KT P6SM SKC FM231400 02007KT P6SM SKC FM231700 08005KT P6SM SKC
KATL 
28nm E 
222159Z 2222/2324 33009KT P6SM FEW150 BKN250 FM230300 33006KT P6SM SKC FM231400 02007KT P6SM SKC FM231700 08005KT P6SM SKC
KRYY 
33nm NE 
221742Z 2218/2318 29005KT P6SM BKN070 BKN100 FM222200 32007KT P6SM SCT150 FM230300 33006KT P6SM SKC FM231400 02007KT P6SM SKC FM231700 08005KT P6SM SKC
NOTAMs
Click for the latest NOTAMs
NOTAMs are issued by the DoD/FAA and will open in a separate window not controlled by AirNav.

 

 
 

Would you like to see your business listed on this page?

 If your business provides an interesting product or service to pilots, flight crews, aircraft, or users of the Falcons Aerie Airport, you should consider listing it here.  To start the listing process, click on the button below
 
Add a business
 

Other Pages about Falcons Aerie Airport

Update a link
 
Copyright © AirNav, LLC. All rights reserved. Privacy Policy  Contact